RG1255 LEMG-LRCL

Flight info

Callsign RG1255
Flight time N/A
Altitude 32000
Route RIXUR DCT UNTOS DCT ROLAS DCT TOSGA DCT RESTU DCT ALT DCT SUMMO DCT MITOS DCT BRUNO DCT RUXET DCT IZA DCT TUKRO DCT ASMOT DCT PTC DCT MHN DCT MORSS DCT BAVON DCT ORKUM/N0442F340 DCT ELSAG DCT ALG DCT OLBEK DCT IBENI/N0436F330 DCT NIVES DCT VEBAL DCT UVERA DCT RILAS DCT LARMU
Aircraft MD82/M-SDFGIJ1RWY/S

Departure

Time 2026-05-07 08:01
Airport Málaga-Costa del Sol Airport (LEMG)

Arrival

Time N/A
Airport Avram Iancu Cluj International Airport (LRCL)
Time Latitude Longitude Altitude Speed Heading
2026-05-07 07:41 36.67465 -4.49379 55 ft 0 kts 90°
2026-05-07 07:50 36.67465 -4.49390 54 ft 2 kts 90°
2026-05-07 07:50 36.67464 -4.49409 54 ft 2 kts 88°
2026-05-07 07:51 36.67464 -4.49427 54 ft 2 kts 88°
2026-05-07 07:51 36.67463 -4.49441 54 ft 0 kts 115°
2026-05-07 07:51 36.67465 -4.49445 54 ft 0 kts 119°
2026-05-07 07:53 36.67461 -4.49439 54 ft 2 kts 131°
2026-05-07 07:53 36.67451 -4.49425 54 ft 1 kts 132°
2026-05-07 07:53 36.67441 -4.49411 54 ft 3 kts 132°
2026-05-07 07:54 36.67417 -4.49376 54 ft 6 kts 130°
2026-05-07 07:54 36.67381 -4.49320 54 ft 9 kts 130°
2026-05-07 07:54 36.67336 -4.49260 54 ft 7 kts 138°
2026-05-07 07:54 36.67296 -4.49253 54 ft 5 kts 208°
2026-05-07 07:55 36.67259 -4.49274 54 ft 6 kts 179°
2026-05-07 07:55 36.67217 -4.49230 54 ft 9 kts 129°
2026-05-07 07:55 36.67167 -4.49163 54 ft 11 kts 133°
2026-05-07 07:55 36.67108 -4.49082 54 ft 11 kts 132°
2026-05-07 07:56 36.67061 -4.49015 54 ft 8 kts 131°
2026-05-07 07:56 36.67013 -4.48946 54 ft 13 kts 131°
2026-05-07 07:56 36.66948 -4.48855 54 ft 12 kts 132°
2026-05-07 07:56 36.66896 -4.48782 54 ft 11 kts 132°
2026-05-07 07:57 36.66836 -4.48698 54 ft 14 kts 132°
2026-05-07 07:57 36.66775 -4.48614 54 ft 11 kts 131°
2026-05-07 07:57 36.66721 -4.48536 54 ft 13 kts 131°
2026-05-07 07:57 36.66658 -4.48485 54 ft 9 kts 188°
2026-05-07 07:58 36.66639 -4.48494 54 ft 0 kts 211°
2026-05-07 07:58 36.66636 -4.48497 54 ft 2 kts 221°
2026-05-07 07:59 36.66600 -4.48540 54 ft 9 kts 223°
2026-05-07 07:59 36.66565 -4.48585 54 ft 4 kts 242°
2026-05-07 07:59 36.66571 -4.48617 54 ft 4 kts 307°
2026-05-07 07:59 36.66717 -4.48823 54 ft 68 kts 311°
2026-05-07 08:00 36.67121 -4.49392 54 ft 105 kts 311°
2026-05-07 08:00 36.67681 -4.50173 54 ft 137 kts 311°
2026-05-07 08:00 36.68378 -4.51146 66 ft 162 kts 312°
2026-05-07 08:00 36.69102 -4.52151 448 ft 152 kts 312°
2026-05-07 08:01 36.69843 -4.53195 639 ft 174 kts 311°
2026-05-07 08:01 36.70703 -4.54416 904 ft 198 kts 311°
2026-05-07 08:01 36.71606 -4.55741 1486 ft 207 kts 306°
2026-05-07 08:01 36.72498 -4.57186 2157 ft 213 kts 308°
2026-05-07 08:02 36.73460 -4.58573 2842 ft 217 kts 318°
2026-05-07 08:02 36.74664 -4.59702 3543 ft 220 kts 330°
2026-05-07 08:02 36.76060 -4.60490 4247 ft 223 kts 343°
2026-05-07 08:02 36.77567 -4.60893 4942 ft 226 kts 353°
2026-05-07 08:03 36.79101 -4.61196 5631 ft 228 kts 349°
2026-05-07 08:03 36.80671 -4.61562 6323 ft 231 kts 354°
2026-05-07 08:03 36.82271 -4.61608 6923 ft 237 kts
2026-05-07 08:03 36.83908 -4.61240 7460 ft 247 kts 17°
2026-05-07 08:04 36.85519 -4.60444 8075 ft 253 kts 28°
2026-05-07 08:04 36.87013 -4.59247 8735 ft 258 kts 39°
2026-05-07 08:04 36.88313 -4.57706 9411 ft 262 kts 50°
2026-05-07 08:04 36.89370 -4.55886 10088 ft 266 kts 60°
2026-05-07 08:05 36.90276 -4.53855 10779 ft 269 kts 57°
2026-05-07 08:05 36.91351 -4.51958 11449 ft 271 kts 52°
2026-05-07 08:05 36.92569 -4.50153 12105 ft 274 kts 48°
2026-05-07 08:05 36.93882 -4.48411 12745 ft 277 kts 45°
2026-05-07 08:06 36.95253 -4.46713 13366 ft 280 kts 44°
2026-05-07 08:06 36.96645 -4.45062 13960 ft 282 kts 43°
2026-05-07 08:06 36.98009 -4.43296 14540 ft 285 kts 52°
2026-05-07 08:06 36.99144 -4.41176 14670 ft 305 kts 65°
2026-05-07 08:07 36.99689 -4.38538 14752 ft 325 kts 88°
2026-05-07 08:07 36.99798 -4.35647 14966 ft 341 kts 85°
2026-05-07 08:07 37.00062 -4.32675 15338 ft 352 kts 82°
2026-05-07 08:07 37.00430 -4.29586 15813 ft 359 kts 81°
2026-05-07 08:08 37.00851 -4.26511 16321 ft 363 kts 80°
2026-05-07 08:08 37.01308 -4.23395 16845 ft 367 kts 79°
2026-05-07 08:08 37.01783 -4.20284 17362 ft 371 kts 79°
2026-05-07 08:08 37.02282 -4.17073 17883 ft 374 kts 79°
2026-05-07 08:09 37.02786 -4.13875 18385 ft 377 kts 79°
2026-05-07 08:09 37.03290 -4.10691 18869 ft 380 kts 79°
2026-05-07 08:09 37.03809 -4.07433 19345 ft 383 kts 78°
2026-05-07 08:09 37.04331 -4.04162 19807 ft 385 kts 78°
2026-05-07 08:10 37.04858 -4.00872 20255 ft 388 kts 78°
2026-05-07 08:10 37.05388 -3.97568 20689 ft 391 kts 78°
2026-05-07 08:10 37.05922 -3.94246 21113 ft 393 kts 78°
2026-05-07 08:10 37.06465 -3.90875 21529 ft 396 kts 78°
2026-05-07 08:11 37.07011 -3.87489 21935 ft 398 kts 78°
2026-05-07 08:11 37.07561 -3.84090 22330 ft 401 kts 78°
2026-05-07 08:11 37.08117 -3.80655 22717 ft 403 kts 78°
2026-05-07 08:11 37.08669 -3.77250 23089 ft 405 kts 78°
2026-05-07 08:12 37.09238 -3.73751 23460 ft 407 kts 78°
2026-05-07 08:12 37.09805 -3.70264 23819 ft 410 kts 78°
2026-05-07 08:12 37.10371 -3.66799 24165 ft 412 kts 78°
2026-05-07 08:12 37.11130 -3.63355 24500 ft 414 kts 70°
2026-05-07 08:13 37.12228 -3.60008 24830 ft 416 kts 64°
2026-05-07 08:13 37.13558 -3.56762 25159 ft 418 kts 63°
2026-05-07 08:13 37.14865 -3.53527 25473 ft 420 kts 63°
2026-05-07 08:13 37.16184 -3.50220 25784 ft 422 kts 63°
2026-05-07 08:14 37.17480 -3.46950 26082 ft 424 kts 63°
2026-05-07 08:14 37.18792 -3.43631 26374 ft 426 kts 63°
2026-05-07 08:14 37.20116 -3.40277 26659 ft 428 kts 63°
2026-05-07 08:14 37.21427 -3.36958 26932 ft 430 kts 63°
2026-05-07 08:15 37.22770 -3.33556 27203 ft 432 kts 64°
2026-05-07 08:15 37.24105 -3.30178 27462 ft 433 kts 64°
2026-05-07 08:15 37.25444 -3.26789 27712 ft 435 kts 64°
2026-05-07 08:15 37.26769 -3.23394 27954 ft 437 kts 64°
2026-05-07 08:16 37.28096 -3.19985 28188 ft 438 kts 64°
2026-05-07 08:16 37.29438 -3.16534 28416 ft 440 kts 64°
2026-05-07 08:16 37.30771 -3.13106 28633 ft 441 kts 64°
2026-05-07 08:16 37.32127 -3.09620 28847 ft 443 kts 64°
2026-05-07 08:17 37.33475 -3.06159 29051 ft 444 kts 64°
2026-05-07 08:17 37.34831 -3.02677 29247 ft 446 kts 64°
2026-05-07 08:17 37.36198 -2.99169 29437 ft 447 kts 64°
2026-05-07 08:17 37.37568 -2.95657 29619 ft 448 kts 64°
2026-05-07 08:18 37.38937 -2.92150 29797 ft 449 kts 64°
2026-05-07 08:18 37.40306 -2.88645 29989 ft 450 kts 64°
2026-05-07 08:18 37.41687 -2.85113 30190 ft 450 kts 64°
2026-05-07 08:18 37.43045 -2.81588 30394 ft 450 kts 64°
2026-05-07 08:19 37.44406 -2.78036 30598 ft 450 kts 64°
2026-05-07 08:19 37.45741 -2.74545 30797 ft 449 kts 64°
2026-05-07 08:19 37.47105 -2.70978 30997 ft 449 kts 64°
2026-05-07 08:19 37.48447 -2.67470 31189 ft 448 kts 64°
2026-05-07 08:20 37.49789 -2.63961 31377 ft 448 kts 64°
2026-05-07 08:20 37.51142 -2.60428 31562 ft 448 kts 64°
2026-05-07 08:20 37.52501 -2.56883 31743 ft 447 kts 64°
2026-05-07 08:20 37.53855 -2.53351 31918 ft 447 kts 64°
2026-05-07 08:21 37.55182 -2.49893 31981 ft 441 kts 64°
2026-05-07 08:21 37.57841 -2.42972 31999 ft 441 kts 64°
2026-05-07 08:22 37.60513 -2.36028 32002 ft 443 kts 64°
2026-05-07 08:22 37.63232 -2.28954 32000 ft 444 kts 65°
2026-05-07 08:23 37.65871 -2.21927 32000 ft 444 kts 65°
2026-05-07 08:23 37.68499 -2.14903 32000 ft 444 kts 65°
2026-05-07 08:24 37.71143 -2.07840 32000 ft 444 kts 65°
2026-05-07 08:24 37.73779 -2.00804 32000 ft 444 kts 64°
2026-05-07 08:25 37.76419 -1.93771 31999 ft 444 kts 64°
2026-05-07 08:25 37.79046 -1.86782 32000 ft 444 kts 64°
2026-05-07 08:26 37.83020 -1.76229 32000 ft 444 kts 64°
2026-05-07 08:26 37.85683 -1.69173 32000 ft 444 kts 64°
2026-05-07 08:27 37.88337 -1.62152 32000 ft 444 kts 64°
2026-05-07 08:27 37.91009 -1.55090 31999 ft 444 kts 64°
2026-05-07 08:28 37.93603 -1.47992 32000 ft 444 kts 65°
2026-05-07 08:28 37.96166 -1.40923 32000 ft 444 kts 65°
2026-05-07 08:29 37.98744 -1.33808 32000 ft 444 kts 65°
2026-05-07 08:29 38.01307 -1.26744 32000 ft 444 kts 65°
2026-05-07 08:30 38.03898 -1.19615 32000 ft 444 kts 65°
2026-05-07 08:30 38.06473 -1.12539 32000 ft 444 kts 65°
2026-05-07 08:31 38.09076 -1.05399 32000 ft 444 kts 65°
2026-05-07 08:31 38.11658 -0.98328 32000 ft 444 kts 65°
2026-05-07 08:32 38.14272 -0.91181 31999 ft 444 kts 65°
2026-05-07 08:32 38.16866 -0.84103 32000 ft 444 kts 65°
2026-05-07 08:33 38.19470 -0.77005 32000 ft 444 kts 65°
2026-05-07 08:33 38.22083 -0.69896 31999 ft 444 kts 65°
2026-05-07 08:34 38.24693 -0.62806 32000 ft 444 kts 64°
2026-05-07 08:34 38.27297 -0.55712 31997 ft 444 kts 67°
2026-05-07 08:35 38.29601 -0.48389 31999 ft 444 kts 68°
2026-05-07 08:35 38.31898 -0.41150 32000 ft 444 kts 68°
2026-05-07 08:36 38.34229 -0.33833 32000 ft 444 kts 68°
2026-05-07 08:36 38.36527 -0.26671 31999 ft 444 kts 67°
2026-05-07 08:37 38.38919 -0.19504 32000 ft 444 kts 67°
2026-05-07 08:37 38.41314 -0.12292 32000 ft 444 kts 67°
2026-05-07 08:38 38.43709 -0.05090 32000 ft 444 kts 67°
2026-05-07 08:38 38.46093 0.02187 32000 ft 444 kts 68°
2026-05-07 08:39 38.48405 0.09443 32000 ft 444 kts 68°
2026-05-07 08:39 38.50715 0.16699 32000 ft 444 kts 68°
2026-05-07 08:40 38.53058 0.24046 32000 ft 444 kts 68°
2026-05-07 08:40 38.55381 0.31316 32000 ft 444 kts 68°
2026-05-07 08:41 38.57727 0.38646 32000 ft 444 kts 67°
2026-05-07 08:41 38.60056 0.45908 32000 ft 444 kts 67°
2026-05-07 08:42 38.62388 0.53245 32000 ft 444 kts 68°
2026-05-07 08:42 38.64688 0.60544 31999 ft 444 kts 67°
2026-05-07 08:43 38.66990 0.67839 32000 ft 444 kts 68°
2026-05-07 08:43 38.69282 0.75218 32000 ft 444 kts 69°
2026-05-07 08:44 38.71542 0.82554 32000 ft 444 kts 69°
2026-05-07 08:44 38.73798 0.89881 32000 ft 444 kts 68°
2026-05-07 08:45 38.76048 0.97174 32000 ft 444 kts 68°
2026-05-07 08:45 38.78341 1.04592 32000 ft 444 kts 68°
2026-05-07 08:46 38.80619 1.11948 32000 ft 444 kts 68°
2026-05-07 08:46 38.82910 1.19334 32000 ft 444 kts 68°
2026-05-07 08:47 38.85178 1.26627 32000 ft 444 kts 68°
2026-05-07 08:47 38.87476 1.34003 32000 ft 444 kts 68°
2026-05-07 08:48 38.89756 1.41307 32000 ft 444 kts 68°
2026-05-07 08:48 38.92039 1.48658 31998 ft 444 kts 69°
2026-05-07 08:49 38.94179 1.56083 32000 ft 444 kts 69°
2026-05-07 08:49 38.96315 1.63539 32000 ft 444 kts 69°
2026-05-07 08:50 38.98444 1.70972 32000 ft 444 kts 70°
2026-05-07 08:50 39.00578 1.78407 32000 ft 444 kts 70°
2026-05-07 08:51 39.02712 1.85826 32000 ft 444 kts 70°
2026-05-07 08:51 39.04848 1.93236 32000 ft 444 kts 70°
2026-05-07 08:52 39.07006 2.00705 32000 ft 444 kts 69°
2026-05-07 08:52 39.09149 2.08109 32000 ft 444 kts 69°
2026-05-07 08:53 39.11309 2.15552 32000 ft 444 kts 69°
2026-05-07 08:53 39.13483 2.23032 32000 ft 444 kts 69°
2026-05-07 08:54 39.15644 2.30445 32000 ft 444 kts 69°
2026-05-07 08:54 39.17818 2.37889 32000 ft 444 kts 69°
2026-05-07 08:55 39.19990 2.45312 32000 ft 444 kts 69°
2026-05-07 08:55 39.22178 2.52769 32000 ft 444 kts 69°
2026-05-07 08:56 39.24350 2.60162 32000 ft 444 kts 69°
2026-05-07 08:56 39.26478 2.67637 32000 ft 444 kts 70°
2026-05-07 08:57 39.28582 2.75097 32000 ft 444 kts 70°
2026-05-07 08:57 39.30676 2.82602 32000 ft 444 kts 70°
2026-05-07 08:58 39.32760 2.90080 32000 ft 444 kts 70°
2026-05-07 08:58 39.34862 2.97617 32000 ft 444 kts 70°
2026-05-07 08:59 39.36959 3.05118 32000 ft 444 kts 70°
2026-05-07 08:59 39.39046 3.12563 32000 ft 444 kts 70°
2026-05-07 09:00 39.41156 3.20077 32000 ft 444 kts 70°
2026-05-07 09:00 39.43493 3.27420 32001 ft 444 kts 62°
2026-05-07 09:01 39.46658 3.34297 32000 ft 444 kts 59°
2026-05-07 09:01 39.49788 3.41166 32000 ft 444 kts 59°
2026-05-07 09:02 39.52907 3.48064 32000 ft 444 kts 59°
2026-05-07 09:02 39.56011 3.54932 32000 ft 444 kts 59°
2026-05-07 09:03 39.59123 3.61813 32000 ft 444 kts 59°